Wetbulb
62.47 63.26 64.06 63.88 63.88 63.37 62.17 60.73 61.90 61.39 61.09 59.10 59.03 59.26 58.58 58.20 57.98 57.41 57.29 56.86 56.44 54.96 54.98 54.57 53.20 52.76 52.08 51.80 51.62 51.26 49.52 48.56 44.45 45.68 47.53 46.92 46.63 45.73 46.61 46.96 47.00 46.19 47.58
58.86 59.37 62.81 63.20 63.15 62.13 61.52 61.35 62.47 60.45 60.35 59.89 59.26 58.98 58.47 58.37 57.29 55.76 55.97 55.71 55.01 54.73 54.16 53.00 52.89 53.48 51.34 50.65 49.76 47.81 46.47 45.67 44.69 43.04 45.19 42.82 42.59 45.21 43.27 43.01 45.34 47.93 46.53
58.45 57.63 58.62 59.42 61.01 60.97 60.62 61.23 61.62 61.71 60.72 60.91 59.96 55.93 51.80 50.13 49.56 50.13 51.41 53.80 54.71 51.95 49.67 48.30 48.09 47.89 45.56 45.40 44.93 42.59 41.97 42.72 41.26 40.52 38.58 40.17 41.07 44.42 44.25 44.99 44.82 44.84 46.46
57.84 56.89 55.93 56.76 58.73 60.66 60.87 60.65 60.19 61.23 61.25 57.97 52.03 49.10 47.30 46.34 46.32 46.70 47.61 49.67 51.81 51.55 49.46 47.78 46.33 45.00 43.25 42.05 41.87 40.19 39.96 38.81 38.40 37.15 37.35 38.43 40.98 42.45 42.97 41.49 41.22 42.51 41.49
55.55 55.50 55.63 55.64 57.37 59.58 59.48 59.69 59.37 59.35 58.11 51.42 48.75 46.50 45.78 45.52 45.06 43.91 44.79 45.66 49.84 49.60 48.23 46.34 45.49 47.55 48.08 45.83 42.94 40.97 37.78 36.53 36.19 35.65 36.12 39.15 39.37 39.77 39.63 41.63 41.12 41.44 40.01
54.94 56.02 56.98 58.06 58.60 58.46 58.78 58.23 58.47 57.92 54.45 49.94 47.93 46.46 44.25 43.86 43.95 44.61 45.55 44.94 49.07 46.31 44.55 44.04 44.14 44.47 43.18 43.70 43.80 44.28 42.52 35.94 34.26 34.45 34.62 38.94 37.70 40.13 41.08 40.62 41.07 39.58 39.08
56.01 57.25 57.52 58.43 56.84 56.35 56.81 54.54 55.42 53.90 49.18 47.44 45.33 43.73 41.87 41.96 42.99 43.33 46.05 46.53 46.05 44.90 43.71 41.94 41.51 41.00 39.51 38.17 40.07 42.43 43.04 43.89 42.89 38.88 36.45 38.86 38.38 40.41 40.44 38.84 38.89 40.12 39.89
55.45 56.52 57.07 56.98 56.93 56.35 54.78 52.47 51.99 50.37 48.31 46.58 44.78 42.80 41.58 42.09 42.74 42.71 44.99 45.08 44.99 42.53 41.63 41.04 40.23 39.00 38.60 37.85 36.76 37.02 39.53 40.99 39.63 41.62 40.47 40.36 41.27 42.06 42.04 42.07 41.74 41.51 42.26
54.89 54.69 55.31 55.87 56.16 55.91 54.97 54.39 54.11 51.23 49.37 47.77 45.07 42.18 40.44 40.31 42.07 42.05 41.87 41.17 40.03 40.11 40.29 40.31 39.02 37.50 38.97 39.75 35.81 35.83 35.83 36.77 41.84 43.26 43.89 44.04 43.68 43.68 44.39 43.46 41.09 40.60 39.90
53.24 53.18 52.05 53.93 54.26 52.90 52.77 52.45 52.78 52.56 50.24 47.63 45.55 43.41 42.30 39.66 41.50 41.26 40.97 38.44 37.60 40.62 40.51 39.78 40.65 38.55 39.36 39.68 35.74 34.44 35.43 36.73 37.99 40.11 42.06 43.28 44.18 44.50 45.69 44.95 42.88 40.97 40.82
52.05 50.87 50.51 50.34 50.65 50.65 50.67 50.47 50.12 50.49 46.38 45.21 43.62 42.10 41.80 40.93 40.37 40.93 40.98 37.06 39.01 38.69 38.42 37.80 38.26 40.17 39.82 39.64 39.79 35.84 36.87 38.92 39.58 41.00 42.33 42.31 42.63 41.57 41.77 44.88 45.83 44.38 42.19
50.09 48.95 48.05 47.62 48.32 47.48 45.26 45.01 45.13 48.03 45.75 45.07 43.59 41.24 40.48 39.03 41.05 40.93 40.50 40.00 41.18 38.33 38.34 38.73 39.04 39.91 39.64 39.83 38.68 40.14 40.43 41.61 41.00 41.87 41.31 40.77 41.02 41.63 42.68 43.39 44.99 45.51 46.19
47.44 46.67 46.38 46.13 45.70 45.65 42.58 40.50 39.62 43.53 44.87 43.07 42.17 38.46 36.87 37.51 37.49 40.29 40.39 40.41 41.52 39.66 40.82 41.26 40.49 39.64 39.80 39.50 40.15 41.35 41.00 41.81 41.05 40.31 39.97 40.73 41.68 42.75 43.92 44.71 46.05 45.19 44.28
47.01 46.38 45.42 42.65 41.28 41.07 42.42 38.59 37.15 38.29 40.29 38.85 37.05 36.68 35.66 34.97 35.56 36.38 37.27 39.63 40.51 40.00 40.80 41.06 41.14 40.63 40.82 41.03 41.02 41.18 41.37 41.60 41.32 40.27 40.71 42.19 44.11 44.80 44.53 44.98 43.17 42.84 41.48
47.53 46.29 43.80 42.53 40.80 39.28 38.15 37.41 38.38 38.03 37.49 35.41 35.81 35.25 34.16 33.41 36.41 38.45 37.91 39.33 39.33 39.66 39.85 40.64 40.08 39.79 39.53 40.00 40.62 41.04 41.46 42.57 42.64 43.42 43.08 43.44 43.75 44.04 43.92 44.15 42.92 41.86 40.28
47.75 46.12 43.55 44.97 44.75 40.59 39.02 38.46 39.13 38.92 38.68 38.03 37.94 36.79 38.01 38.79 39.16 38.93 38.78 38.93 38.84 38.96 39.98 38.79 38.41 38.74 38.64 39.31 40.08 41.17 42.41 43.59 44.10 44.15 44.15 43.80 43.39 42.93 42.51 42.79 42.72 41.35 40.23
45.46 45.01 46.07 45.72 47.10 42.96 41.28 39.40 37.73 38.04 39.45 38.77 38.95 38.72 38.91 39.17 38.71 39.27 39.58 38.98 39.04 39.95 39.79 39.16 38.69 38.70 38.70 39.61 40.17 41.24 41.80 43.05 44.10 44.13 44.29 43.83 43.31 42.69 42.16 41.38 41.02 40.43 39.44
46.61 45.48 48.04 48.05 46.89 44.82 44.03 43.36 42.22 40.73 39.71 39.72 39.33 40.95 39.96 39.32 39.16 39.02 38.89 41.44 42.57 42.41 41.76 40.68 39.97 39.81 39.81 39.64 40.17 40.55 41.61 42.90 43.62 44.71 44.93 44.30 43.54 42.51 41.42 41.18 41.21 40.39 39.71
48.41 48.55 48.00 46.36 44.81 43.47 43.16 42.64 42.18 41.99 41.99 40.77 40.53 42.99 40.79 40.14 40.87 41.54 41.32 43.69 42.63 42.62 42.83 42.49 42.34 41.61 41.29 41.30 41.48 42.21 42.79 43.28 44.02 44.85 44.62 44.19 43.72 42.87 42.17 42.40 41.22 37.30 38.53
48.86 45.44 45.61 45.63 43.84 43.01 43.04 42.10 41.69 42.06 41.69 41.24 39.93 40.80 41.61 40.98 42.64 43.15 43.73 44.28 44.23 44.10 44.13 43.62 43.28 42.93 42.73 42.55 42.75 43.15 44.10 44.49 44.51 43.62 43.06 42.93 43.17 43.38 42.69 42.87 42.22 41.05 40.97
48.24 46.14 39.62 43.63 41.98 43.79 42.53 41.67 41.23 41.82 41.96 41.31 40.62 39.74 33.73 42.18 42.06 42.39 43.67 44.86 44.84 44.69 44.51 44.54 44.89 44.92 44.76 44.60 45.47 44.87 44.18 44.48 44.37 44.22 44.31 43.16 42.88 43.37 44.09 44.23 43.99 43.26 42.26
46.90 44.83 43.69 42.40 44.03 41.28 41.48 41.97 41.73 42.95 41.90 39.85 40.14 41.85 36.50 43.56 43.32 43.47 44.07 44.88 45.20 45.40 45.89 45.60 46.08 46.28 45.74 44.89 45.02 44.46 43.83 43.93 44.69 45.51 45.55 45.98 45.68 44.27 44.55 44.28 44.08 44.57 43.83
45.84 44.68 43.43 42.29 42.96 39.68 41.93 41.94 42.22 42.29 41.64 40.90 41.48 43.18 43.76 43.17 40.66 42.71 43.92 44.81 44.97 45.57 47.35 47.96 47.42 46.87 47.01 44.78 44.60 45.35 43.59 42.75 43.51 46.23 46.39 46.92 46.27 45.11 45.00 44.98 45.34 44.56 43.78
45.31 43.94 43.06 43.29 43.06 42.23 41.65 41.35 41.24 39.85 41.95 41.59 41.47 42.56 43.64 43.28 42.38 42.21 43.66 45.26 46.01 46.40 47.65 48.41 48.11 47.42 45.46 43.82 44.15 43.79 41.62 39.55 41.11 43.67 45.11 48.19 46.79 45.30 47.27 46.72 45.98 45.18 43.96
44.69 44.62 44.22 43.26 42.42 41.82 41.60 41.49 41.82 42.09 42.67 42.64 42.77 43.70 43.74 43.70 43.75 43.42 44.38 45.57 45.62 46.23 46.90 46.99 45.01 45.35 46.17 43.67 41.50 40.25 35.65 33.76 38.07 35.18 45.75 48.51 48.61 48.40 47.22 46.73 46.49 45.16 44.90
45.87 45.18 44.17 43.69 42.77 41.96 41.66 41.46 41.71 42.14 42.57 42.86 43.70 43.76 44.13 44.37 44.64 44.63 44.73 44.86 45.32 46.40 47.23 47.10 45.99 43.68 42.13 41.45 38.73 35.02 34.35 34.55 37.36 35.10 43.03 48.42 46.28 45.48 45.64 46.34 46.29 45.40 45.38
MSLP
1012.26 1011.70 1011.15 1010.70 1010.27 1009.93 1009.63 1009.45 1009.22 1009.50 1009.62 1009.62 1009.83 1009.81 1009.76 1009.59 1009.44 1009.41 1009.11 1008.82 1008.84 1008.99 1009.15 1009.47 1010.02 1009.97 1010.31 1010.30 1010.32 1010.58 1011.17 1011.32 1011.58 1011.52 1011.53 1011.32 1011.28 1011.44 1011.27 1011.26 1011.16 1011.03 1010.70
1012.22 1011.85 1011.47 1010.80 1010.28 1009.90 1009.72 1009.48 1009.04 1009.11 1009.17 1009.10 1009.18 1009.36 1009.57 1009.62 1009.61 1009.51 1009.41 1009.33 1009.25 1009.67 1009.94 1010.11 1010.52 1010.47 1010.69 1010.82 1011.01 1011.40 1011.72 1012.03 1012.15 1012.02 1011.74 1011.60 1011.42 1011.24 1011.41 1011.33 1011.14 1010.78 1010.54
1012.11 1011.74 1011.26 1010.84 1010.31 1009.85 1009.48 1009.23 1008.84 1008.64 1008.68 1008.51 1008.87 1009.54 1009.86 1010.16 1010.10 1010.10 1010.09 1009.88 1009.83 1010.14 1010.52 1010.89 1011.29 1011.41 1011.63 1011.71 1011.92 1012.08 1012.14 1012.31 1012.43 1012.45 1012.42 1012.00 1011.57 1011.44 1011.42 1011.31 1011.10 1010.64 1010.11
1012.05 1011.64 1011.19 1010.69 1010.02 1009.30 1008.94 1008.76 1008.74 1008.47 1008.18 1009.01 1009.92 1010.13 1010.60 1010.50 1010.41 1010.41 1010.36 1010.39 1010.53 1010.95 1011.26 1011.65 1011.77 1012.06 1012.25 1012.25 1012.29 1012.43 1012.42 1012.55 1012.61 1012.56 1012.32 1012.08 1011.77 1011.49 1011.45 1011.38 1011.01 1010.45 1009.90
1011.92 1011.55 1011.20 1010.80 1010.16 1009.54 1009.26 1008.91 1008.53 1008.67 1009.05 1009.61 1010.39 1011.17 1011.29 1011.03 1010.89 1011.16 1011.37 1011.00 1010.84 1011.48 1011.85 1012.06 1012.33 1012.32 1012.49 1012.50 1012.41 1012.48 1012.48 1012.52 1012.57 1012.62 1012.47 1012.23 1012.06 1011.85 1011.58 1011.25 1011.00 1010.62 1009.92
1012.21 1011.78 1011.43 1010.82 1010.40 1010.15 1009.49 1008.94 1008.71 1008.76 1009.91 1009.37 1010.88 1012.02 1011.95 1011.94 1011.92 1011.43 1011.68 1011.54 1011.36 1011.94 1012.23 1012.48 1012.97 1013.21 1013.25 1013.11 1012.89 1012.63 1012.33 1012.45 1012.60 1012.69 1012.59 1012.30 1011.96 1011.71 1011.39 1011.17 1010.81 1010.40 1009.70
1012.98 1012.58 1011.85 1011.24 1010.82 1010.61 1010.23 1009.85 1009.60 1009.89 1010.87 1012.85 1011.82 1011.83 1013.21 1012.66 1012.65 1012.04 1011.68 1011.91 1012.12 1012.49 1012.81 1012.97 1013.37 1013.71 1013.63 1013.50 1013.16 1012.72 1012.39 1012.14 1012.06 1012.11 1012.16 1011.97 1011.80 1011.57 1011.29 1010.88 1010.64 1010.26 1009.83
1013.28 1012.86 1012.29 1011.71 1011.19 1010.84 1010.92 1010.92 1010.85 1011.06 1011.42 1012.29 1012.56 1013.09 1013.27 1013.75 1013.08 1012.66 1012.66 1012.50 1012.87 1013.24 1013.54 1013.66 1013.75 1013.85 1013.82 1013.70 1013.40 1013.04 1012.57 1012.34 1012.21 1012.01 1011.96 1011.78 1011.58 1011.26 1010.99 1010.63 1010.37 1010.09 1009.56
1014.02 1013.62 1012.81 1012.16 1011.49 1011.29 1011.17 1011.32 1011.30 1011.51 1012.14 1012.83 1013.66 1013.87 1013.73 1013.94 1013.90 1013.85 1013.72 1013.55 1013.64 1013.86 1014.09 1014.17 1014.13 1014.15 1014.09 1013.88 1013.63 1013.45 1013.10 1012.57 1012.09 1011.93 1011.62 1011.30 1010.96 1010.79 1010.49 1010.18 1010.01 1009.77 1009.29
1014.82 1014.45 1013.77 1013.08 1012.40 1012.43 1012.35 1012.33 1012.38 1012.30 1012.98 1013.73 1014.08 1014.22 1014.30 1014.65 1014.68 1014.73 1014.17 1014.19 1014.01 1014.12 1014.56 1014.42 1014.40 1014.35 1014.18 1013.97 1013.91 1013.80 1013.33 1012.85 1012.40 1011.72 1011.23 1010.78 1010.54 1010.32 1009.94 1009.72 1009.73 1009.53 1009.35
1015.34 1015.16 1014.57 1014.48 1013.94 1013.56 1013.58 1013.50 1013.29 1013.34 1013.88 1014.19 1014.46 1014.92 1014.94 1015.21 1015.19 1015.10 1014.98 1014.81 1014.70 1014.81 1014.74 1014.63 1014.62 1014.45 1014.24 1014.06 1013.86 1013.72 1013.46 1012.83 1012.15 1011.65 1011.07 1010.75 1010.43 1010.18 1009.94 1009.62 1009.42 1009.38 1009.42
1015.82 1015.96 1015.89 1015.54 1015.13 1015.08 1014.89 1014.69 1014.21 1013.87 1014.45 1014.84 1015.14 1015.51 1015.67 1015.78 1015.70 1015.66 1015.51 1015.22 1015.14 1015.09 1015.08 1014.90 1014.71 1014.51 1014.24 1013.98 1013.79 1013.50 1012.99 1012.42 1011.90 1011.43 1011.08 1010.69 1010.38 1010.08 1009.81 1009.66 1009.52 1009.44 1009.28
1016.28 1016.67 1016.66 1016.51 1016.35 1016.10 1016.05 1016.06 1015.67 1015.25 1015.13 1015.31 1015.76 1016.41 1016.76 1016.63 1016.52 1016.37 1016.05 1015.75 1015.65 1015.56 1015.28 1015.12 1014.90 1014.67 1014.39 1014.08 1013.73 1013.38 1012.88 1012.39 1012.00 1011.57 1011.13 1010.67 1010.35 1010.01 1009.75 1009.59 1009.64 1009.66 1009.68
1016.74 1016.76 1017.18 1017.21 1017.41 1017.38 1017.16 1017.14 1016.87 1016.66 1016.64 1016.85 1017.11 1017.35 1017.60 1017.62 1017.43 1017.07 1016.68 1016.26 1015.91 1015.63 1015.56 1015.43 1015.31 1015.08 1014.70 1014.33 1013.83 1013.41 1012.95 1012.52 1012.14 1011.76 1011.26 1010.78 1010.38 1010.08 1009.99 1009.89 1010.05 1010.11 1010.11
1017.43 1017.78 1017.71 1017.94 1018.12 1018.25 1018.32 1018.30 1018.01 1018.06 1017.78 1017.85 1018.09 1018.18 1018.17 1018.03 1017.84 1017.48 1017.14 1016.83 1016.52 1016.09 1015.83 1015.63 1015.42 1015.18 1014.92 1014.52 1013.99 1013.48 1012.96 1012.47 1012.09 1011.76 1011.49 1011.19 1010.90 1010.69 1010.63 1010.58 1010.63 1010.65 1010.62
1017.50 1017.96 1018.03 1018.11 1018.31 1018.58 1018.77 1018.87 1018.81 1018.71 1018.58 1018.50 1018.52 1018.49 1018.45 1018.20 1017.86 1017.61 1017.41 1017.13 1016.85 1016.53 1016.31 1016.10 1015.87 1015.66 1015.26 1014.84 1014.34 1013.77 1013.22 1012.79 1012.45 1012.12 1011.86 1011.66 1011.46 1011.32 1011.28 1011.24 1011.19 1011.19 1011.25
1017.36 1017.64 1017.64 1017.77 1018.00 1018.39 1018.72 1018.93 1019.19 1019.44 1019.24 1019.07 1018.89 1018.81 1018.63 1018.43 1018.27 1017.94 1017.65 1017.31 1016.98 1016.62 1016.45 1016.28 1016.08 1015.80 1015.46 1015.07 1014.63 1014.16 1013.71 1013.32 1012.97 1012.59 1012.39 1012.24 1012.14 1012.06 1011.91 1011.91 1011.94 1011.94 1012.00
1017.16 1017.09 1017.14 1017.15 1017.84 1018.39 1018.55 1018.76 1019.04 1019.12 1019.48 1019.55 1019.15 1018.98 1018.83 1018.69 1018.47 1018.19 1017.76 1017.31 1016.99 1016.77 1016.64 1016.45 1016.21 1015.93 1015.65 1015.34 1014.93 1014.56 1014.15 1013.72 1013.36 1013.04 1012.90 1012.78 1012.72 1012.69 1012.62 1012.55 1012.52 1012.51 1012.59
1017.22 1017.22 1017.26 1017.84 1018.30 1018.65 1018.78 1019.00 1019.10 1019.31 1019.61 1019.87 1019.64 1019.49 1019.35 1019.05 1018.80 1018.41 1018.02 1017.69 1017.43 1017.14 1016.93 1016.70 1016.46 1016.17 1015.85 1015.53 1015.18 1014.81 1014.44 1014.13 1013.87 1013.62 1013.49 1013.39 1013.30 1013.19 1013.13 1013.11 1013.20 1013.21 1013.21
1017.12 1017.58 1017.73 1018.39 1018.93 1019.04 1019.19 1019.33 1019.52 1019.81 1020.06 1020.30 1020.33 1020.23 1019.89 1019.42 1019.15 1018.87 1018.48 1018.08 1017.82 1017.59 1017.31 1017.08 1016.75 1016.29 1016.10 1015.72 1015.44 1015.11 1014.80 1014.59 1014.38 1014.23 1014.16 1013.99 1013.78 1013.59 1013.65 1013.70 1013.76 1013.80 1013.79
1017.70 1018.30 1018.72 1019.05 1019.35 1019.51 1019.69 1019.83 1019.95 1020.24 1020.57 1020.77 1020.75 1020.56 1020.28 1020.02 1019.75 1019.31 1018.93 1018.57 1018.25 1017.87 1017.59 1017.25 1016.90 1016.52 1016.20 1015.92 1015.66 1015.45 1015.22 1015.00 1014.79 1014.54 1014.42 1014.40 1014.18 1014.01 1013.92 1013.89 1014.00 1014.15 1014.17
1018.57 1019.13 1019.44 1019.69 1019.79 1020.18 1020.41 1020.41 1020.54 1020.79 1020.98 1021.06 1020.94 1020.69 1020.45 1020.22 1019.94 1019.62 1019.24 1018.90 1018.46 1018.10 1017.66 1017.39 1017.05 1016.72 1016.42 1016.25 1016.04 1015.65 1015.37 1015.14 1014.82 1014.58 1014.39 1014.29 1014.11 1014.06 1013.95 1014.00 1013.93 1014.01 1014.21
1019.32 1019.59 1019.99 1020.34 1020.46 1020.78 1020.93 1020.97 1021.12 1021.35 1021.47 1021.33 1021.14 1020.95 1020.75 1020.57 1020.34 1019.95 1019.55 1019.12 1018.63 1018.06 1017.58 1017.29 1017.23 1016.99 1016.64 1016.43 1016.09 1015.72 1015.53 1015.23 1014.80 1014.40 1014.09 1013.91 1013.74 1013.81 1013.88 1013.86 1013.87 1014.04 1014.24
1019.92 1020.16 1020.58 1020.91 1021.07 1021.31 1021.44 1021.57 1021.73 1021.77 1021.71 1021.67 1021.52 1021.23 1020.98 1020.75 1020.55 1020.20 1019.78 1019.37 1018.96 1018.36 1017.89 1017.58 1017.43 1017.30 1017.10 1016.80 1016.37 1016.00 1015.75 1015.37 1014.82 1014.31 1013.93 1013.66 1013.52 1013.47 1013.40 1013.51 1013.79 1014.05 1014.26
1020.60 1020.82 1021.14 1021.56 1021.79 1021.88 1021.97 1022.05 1022.04 1021.92 1021.90 1021.78 1021.54 1021.33 1021.14 1020.90 1020.65 1020.31 1019.92 1019.55 1019.11 1018.74 1018.41 1018.23 1018.08 1017.82 1017.51 1017.24 1016.88 1016.36 1015.83 1015.26 1014.76 1014.39 1013.73 1013.47 1013.39 1013.31 1013.38 1013.47 1013.71 1014.07 1014.27
1021.17 1021.54 1021.84 1022.06 1022.33 1022.46 1022.55 1022.61 1022.59 1022.47 1022.33 1022.05 1021.81 1021.60 1021.44 1021.24 1020.99 1020.65 1020.26 1019.89 1019.45 1019.13 1018.89 1018.75 1018.57 1018.39 1018.08 1017.73 1017.44 1016.83 1016.13 1015.52 1014.96 1014.34 1013.91 1013.54 1013.53 1013.53 1013.51 1013.62 1013.76 1014.06 1014.32
Wind_Speed
8 8 8 7 7 5 3 1 4 1 3 3 4 5 6 6 5 4 4 3 5 4 3 3 6 5 5 5 4 5 6 4 1 3 3 3 4 5 7 6 6 5 5
6 8 8 8 7 6 5 6 6 6 6 7 7 6 0 4 6 8 9 9 9 10 8 10 9 7 8 8 6 7 7 5 3 2 2 3 2 4 4 6 5 5 5
6 7 8 8 8 7 7 7 6 5 7 8 4 7 8 8 8 7 6 8 9 9 8 8 7 7 7 5 6 5 4 3 3 2 3 2 2 1 2 2 4 5 5
7 8 8 9 10 8 6 7 6 7 6 9 10 11 9 8 10 10 9 9 8 8 8 8 8 7 6 6 5 4 3 3 2 2 3 3 2 3 3 3 5 3 6
8 10 11 8 11 8 8 7 7 6 6 12 12 10 10 11 9 9 8 7 7 9 7 7 6 11 14 12 5 5 5 3 3 3 3 3 3 3 3 2 4 6 5
11 11 8 11 12 12 9 7 6 3 10 15 12 11 12 9 15 17 10 5 8 7 6 6 9 12 12 14 14 11 6 1 2 1 2 3 4 3 2 3 3 4 3
13 13 12 9 10 7 7 9 12 16 17 7 12 13 11 13 16 16 16 5 6 5 7 7 7 7 9 6 10 13 8 10 7 3 3 3 4 3 4 4 4 4 3
12 13 13 11 8 6 7 7 9 10 11 8 10 12 12 9 20 20 15 10 10 10 9 8 7 7 9 8 6 6 7 5 5 3 4 6 6 6 6 4 3 4 5
10 11 12 13 8 7 6 7 7 9 9 9 8 10 12 11 18 18 11 8 7 7 7 8 8 7 12 12 6 7 6 5 9 12 11 11 11 10 9 3 3 1 2
10 11 12 12 12 14 13 12 10 8 10 8 9 10 15 10 15 15 12 6 7 6 3 5 12 7 10 9 5 5 6 6 8 10 8 6 6 5 9 4 2 2 2
10 9 12 12 12 13 11 11 10 8 10 7 10 9 10 9 9 13 12 5 5 5 4 4 3 9 9 9 6 3 4 8 11 6 5 4 3 3 3 3 2 1 2
8 10 9 9 10 9 11 10 11 6 7 5 7 7 7 8 16 12 11 12 10 5 4 4 3 8 9 8 5 9 9 9 4 4 4 3 3 3 3 3 3 3 3
8 6 7 9 9 10 11 10 8 10 7 9 9 8 7 8 9 17 11 11 12 6 5 9 12 11 10 7 7 9 8 5 4 4 5 3 3 3 4 2 4 4 7
5 5 7 8 8 9 6 8 9 8 8 8 7 6 6 4 5 6 6 7 9 7 6 5 6 7 8 8 6 5 3 4 4 4 4 4 4 4 6 4 3 3 5
5 4 7 5 8 8 9 6 8 8 6 4 6 5 4 5 4 5 6 6 6 6 5 3 5 4 4 4 4 4 5 5 5 5 4 5 5 5 5 4 4 4 5
4 3 3 3 3 5 5 6 12 11 12 13 12 5 2 2 6 7 7 8 10 9 4 4 4 4 4 5 6 6 5 7 5 5 4 5 5 6 5 5 5 6 5
5 3 4 4 4 4 4 5 5 5 9 8 7 6 6 7 9 7 7 7 7 5 4 4 4 4 4 5 5 5 5 5 5 5 5 5 5 5 6 6 6 6 6
3 0 3 7 7 3 4 4 3 3 3 2 5 10 12 8 8 8 8 6 6 6 4 4 5 5 4 4 4 4 4 5 4 5 5 5 5 5 6 6 5 6 6
4 5 9 9 7 6 3 5 4 5 7 6 5 7 8 10 9 7 9 6 5 5 5 5 5 5 4 4 4 4 4 4 4 4 5 5 5 4 4 4 5 7 6
3 8 10 9 5 3 5 4 5 7 6 6 5 5 4 6 6 6 6 6 6 6 5 5 4 4 4 4 4 4 4 6 5 4 4 4 3 3 4 5 5 4 3
8 8 10 7 4 6 5 5 4 4 6 5 3 3 4 3 4 4 5 6 5 5 5 5 5 4 4 4 5 5 4 4 4 3 4 3 3 3 2 3 3 3 2
8 8 7 6 7 5 5 4 5 6 6 4 3 4 6 3 4 4 4 4 4 4 3 3 4 4 4 3 4 4 4 4 3 2 2 3 2 2 2 1 3 2 3
7 9 7 5 6 6 5 5 6 5 5 3 3 4 4 4 4 4 4 4 5 5 5 4 4 4 4 5 4 3 4 4 4 4 3 3 3 3 3 3 1 3 4
8 9 8 8 5 5 4 4 4 4 3 3 3 3 3 3 4 4 4 5 5 5 5 6 5 6 7 6 5 5 5 5 4 4 5 3 2 3 1 2 4 5 4
8 8 8 7 4 4 4 4 4 4 3 3 3 2 3 4 4 4 4 4 4 5 6 5 6 8 8 11 11 12 10 7 5 6 4 4 4 4 3 3 4 4 5
8 9 7 5 5 4 4 4 5 5 6 4 4 4 3 4 4 5 6 5 5 6 7 5 9 13 12 10 12 11 12 11 10 10 5 3 4 4 3 4 6 4 5
Wind_Direction
343 331 334 332 332 321 315 335 125 178 211 188 213 200 193 188 197 222 257 235 199 231 310 315 28 56 53 45 42 48 52 37 90 340 42 10 19 16 343 331 318 284 266
341 337 316 311 309 309 293 237 190 202 212 210 206 225 168 8 26 38 42 44 59 72 68 59 42 51 47 35 47 49 50 41 27 352 318 342 358 346 317 313 318 331 320
330 318 312 310 306 295 288 279 267 225 222 222 200 86 80 62 54 50 38 35 46 80 79 75 65 64 53 46 60 52 41 12 12 360 283 285 292 315 297 274 292 290 299
314 310 307 304 304 274 281 283 277 277 255 65 68 78 84 81 51 39 34 31 34 85 74 75 76 73 65 51 55 43 33 15 343 336 331 311 323 335 317 311 311 305 315
320 322 319 313 324 322 328 305 297 303 65 100 95 73 60 41 47 37 20 22 34 71 74 79 64 61 52 36 25 9 12 1 350 339 321 316 299 305 283 273 281 297 306
337 338 343 340 350 353 333 337 336 86 104 107 90 72 47 51 36 34 23 16 71 72 72 76 71 51 34 18 4 355 10 62 314 254 258 294 283 282 278 292 298 329 322
355 344 345 5 5 355 2 38 57 90 98 51 71 76 55 35 25 25 19 58 81 77 62 68 73 48 29 8 350 355 357 6 7 313 299 312 306 305 315 299 296 289 264
357 352 359 349 339 351 33 54 77 93 97 91 86 78 69 42 29 20 27 49 67 61 57 58 64 44 21 10 349 353 357 6 9 6 324 296 286 297 279 261 274 283 274
360 354 358 342 346 36 54 53 62 86 85 87 89 85 81 55 42 29 43 51 56 77 66 59 47 34 12 11 7 3 338 345 347 324 308 296 285 282 273 270 286 268 303
11 7 8 8 20 34 28 25 30 45 88 90 92 80 73 65 52 37 40 28 32 55 71 63 36 38 9 8 356 348 350 321 316 314 320 310 313 297 287 228 267 342 360
35 14 24 7 30 39 33 16 6 29 90 85 85 72 69 61 50 49 39 37 36 48 38 27 21 7 347 349 360 331 288 293 296 299 291 307 313 321 332 1 18 259 283
44 32 26 28 40 34 29 12 356 58 95 101 98 84 58 38 32 38 45 46 37 35 20 359 359 5 358 352 347 315 311 305 299 317 328 331 322 326 332 343 357 34 39
62 51 37 33 29 38 32 19 20 32 43 41 76 64 45 29 30 22 25 28 30 28 21 24 17 8 354 337 329 358 341 347 341 344 339 326 309 307 318 18 85 63 51
93 93 62 57 42 32 39 42 40 35 45 50 46 61 54 39 22 12 358 360 6 12 5 360 3 353 0 2 351 339 335 327 327 320 324 323 339 31 45 45 74 73 50
67 63 82 71 71 66 52 36 60 48 52 53 51 50 50 21 349 353 16 12 359 355 344 2 12 4 5 346 326 332 336 342 351 349 356 13 25 37 48 32 51 62 68
111 89 118 134 134 100 92 74 41 54 55 64 63 84 25 357 357 10 4 1 355 358 18 19 17 11 358 348 354 349 346 356 5 7 15 21 35 42 49 43 46 49 56
93 117 195 196 150 144 132 105 97 32 49 36 75 71 53 38 34 25 3 338 350 360 30 15 8 359 347 346 345 348 355 358 353 12 25 37 45 50 48 52 49 53 63
74 357 40 73 121 117 94 95 143 127 105 28 355 42 30 15 8 360 332 0 21 24 21 17 12 1 355 354 351 354 354 359 6 16 38 43 42 48 50 50 46 58 62
26 27 83 79 79 84 74 84 65 60 73 56 25 29 5 359 14 16 6 23 12 18 14 16 6 358 353 350 351 353 354 4 11 28 37 42 43 49 45 41 57 51 62
5 105 77 91 87 75 81 73 76 74 68 61 32 15 357 6 16 13 14 15 19 18 14 11 355 345 352 351 359 355 16 22 23 17 25 35 36 52 55 63 74 72 38
89 81 84 84 78 77 77 59 57 78 75 57 27 9 347 12 358 357 9 13 10 358 355 352 341 334 342 349 8 14 11 19 38 24 15 16 12 35 29 58 85 95 79
83 83 82 75 73 71 71 58 58 76 62 54 7 18 13 10 360 359 3 359 337 329 323 335 342 349 349 350 353 5 3 354 348 333 275 293 286 235 303 346 10 55 144
92 94 88 74 75 72 62 49 63 71 67 46 24 10 5 16 9 355 349 338 335 339 332 349 13 12 4 3 2 1 357 336 311 305 304 264 264 234 237 274 231 93 110
81 79 76 77 62 81 88 70 80 80 69 55 20 1 15 358 358 348 340 335 344 341 350 8 20 34 19 7 354 350 355 337 309 314 320 333 6 187 253 132 141 124 112
75 76 77 85 74 57 60 52 39 49 57 23 359 28 15 10 5 359 352 354 353 355 2 23 28 18 15 12 5 359 349 343 346 327 337 359 36 57 92 110 135 122 119
75 76 73 68 76 49 43 43 38 27 16 11 7 27 15 16 11 10 8 9 8 20 23 27 31 28 17 12 3 354 357 359 356 351 348 16 54 51 76 89 114 140 137